When you browse on this site, cookies collect data to enhance your experience and personalize the content and advertising you see.
Visit our Privacy Policy to learn more. By continuing to use the site, you agree to this use of cookies and data.
  • In Latvia
  • List of Countries
  • For 7 days
  • Water Temperature
  • Weather Map
  • Weather Widgets
  • user-avatar
    Login

    Hourly Weather Cleveland

    Today, 14 October, Monday

    Time Temperature Precipitation Wind Pressure Humidity
    00:00 +10°C° 0 mm 5 mps 743 mmHg 66%
    01:00 +9°C° 0 mm 5 mps 743 mmHg 70%
    02:00 +9°C° 0 mm 5 mps 743 mmHg 70%
    03:00 +8°C° 0 mm 5 mps 743 mmHg 69%
    04:00 +7°C° 0 mm 5 mps 744 mmHg 69%
    05:00 +6°C° 0 mm 5 mps 744 mmHg 71%
    06:00 +6°C° 0 mm 5 mps 745 mmHg 72%
    07:00 +6°C° 0 mm 5 mps 745 mmHg 74%
    08:00 +7°C° 0 mm 6 mps 745 mmHg 70%
    09:00 +8°C° 0 mm 6 mps 745 mmHg 65%
    10:00 +9°C° 0 mm 7 mps 746 mmHg 60%
    11:00 +9°C° 0 mm 7 mps 746 mmHg 59%
    12:00 +9°C° 0 mm 6 mps 746 mmHg 59%
    13:00 +9°C° 0 mm 6 mps 746 mmHg 58%
    14:00 +10°C° 0 mm 6 mps 746 mmHg 57%
    15:00 +10°C° 0 mm 6 mps 746 mmHg 56%
    16:00 +10°C° 0 mm 5 mps 747 mmHg 55%
    17:00 +9°C° 0 mm 5 mps 747 mmHg 59%
    18:00 +8°C° 0 mm 5 mps 747 mmHg 63%
    19:00 +7°C° 0 mm 4 mps 747 mmHg 68%
    20:00 +6°C° 0 mm 4 mps 748 mmHg 69%
    21:00 +6°C° 0 mm 4 mps 748 mmHg 70%
    22:00 +7°C° 0 mm 3 mps 748 mmHg 70%
    23:00 +7°C° 0 mm 3 mps 748 mmHg 72%

    Tomorrow, 15 October, Tuesday

    Time Temperature Precipitation Wind Pressure Humidity
    00:00 +5°C° 0 mm 3 mps 748 mmHg 73%
    01:00 +5°C° 0 mm 3 mps 748 mmHg 74%
    02:00 +5°C° 0 mm 3 mps 748 mmHg 75%
    03:00 +4°C° 0 mm 3 mps 748 mmHg 76%
    04:00 +4°C° 0 mm 3 mps 748 mmHg 77%
    05:00 +4°C° 0 mm 3 mps 748 mmHg 78%
    06:00 +4°C° 0 mm 3 mps 748 mmHg 79%
    07:00 +3°C° 0 mm 3 mps 748 mmHg 79%
    08:00 +6°C° 0 mm 4 mps 748 mmHg 72%
    09:00 +8°C° 0 mm 4 mps 747 mmHg 66%
    10:00 +12°C° 0 mm 4 mps 747 mmHg 59%
    11:00 +13°C° 0 mm 4 mps 746 mmHg 56%
    12:00 +15°C° 0 mm 5 mps 745 mmHg 53%
    13:00 +16°C° 0 mm 5 mps 745 mmHg 50%
    14:00 +17°C° 0 mm 5 mps 744 mmHg 51%
    15:00 +18°C° 0 mm 4 mps 743 mmHg 53%
    16:00 +18°C° 0 mm 4 mps 742 mmHg 54%
    17:00 +17°C° 0 mm 4 mps 742 mmHg 60%
    18:00 +14°C° 0 mm 4 mps 742 mmHg 66%
    19:00 +13°C° 0 mm 4 mps 741 mmHg 72%
    20:00 +12°C° 0 mm 5 mps 741 mmHg 71%
    21:00 +12°C° 0 mm 5 mps 740 mmHg 70%
    22:00 +11°C° 0 mm 6 mps 739 mmHg 69%
    23:00 +11°C° 0 mm 6 mps 738 mmHg 67%

    Day after tomorrow, 16 October, Wednesday

    Time Temperature Precipitation Wind Pressure Humidity
    00:00 +13°C° 0 mm 6 mps 737 mmHg 66%
    01:00 +12°C° 0 mm 7 mps 736 mmHg 64%
    02:00 +12°C° 0.7 mm 7 mps 735 mmHg 72%
    03:00 +13°C° 0.7 mm 8 mps 734 mmHg 79%
    04:00 +13°C° 0.7 mm 8 mps 734 mmHg 87%
    05:00 +12°C° 4 mm 9 mps 733 mmHg 88%
    06:00 +11°C° 4 mm 9 mps 733 mmHg 89%
    07:00 +11°C° 4 mm 9 mps 733 mmHg 90%
    08:00 +10°C° 0.9 mm 9 mps 733 mmHg 86%
    09:00 +10°C° 0.9 mm 9 mps 734 mmHg 82%
    10:00 +9°C° 0.9 mm 10 mps 734 mmHg 78%
    11:00 +8°C° 0.1 mm 10 mps 734 mmHg 76%
    12:00 +8°C° 0.1 mm 9 mps 734 mmHg 74%
    13:00 +8°C° 0.1 mm 9 mps 734 mmHg 72%
    14:00 +8°C° 0.3 mm 10 mps 735 mmHg 74%
    15:00 +9°C° 0.3 mm 10 mps 735 mmHg 76%
    16:00 +9°C° 0.3 mm 11 mps 735 mmHg 78%
    17:00 +9°C° 0.5 mm 11 mps 735 mmHg 77%
    18:00 +9°C° 0.5 mm 11 mps 736 mmHg 77%
    19:00 +8°C° 0.5 mm 12 mps 736 mmHg 77%
    20:00 +8°C° 0.3 mm 12 mps 737 mmHg 76%
    21:00 +8°C° 0.3 mm 12 mps 737 mmHg 76%
    22:00 +8°C° 0.3 mm 12 mps 737 mmHg 76%
    23:00 +7°C° 0.1 mm 11 mps 737 mmHg 75%

    17 October, Thursday

    Time Temperature Precipitation Wind Pressure Humidity
    00:00 +7°C° 0.1 mm 11 mps 737 mmHg 75%
    01:00 +7°C° 0.1 mm 11 mps 738 mmHg 75%
    02:00 +7°C° 0.1 mm 11 mps 738 mmHg 74%
    03:00 +7°C° 0.1 mm 11 mps 738 mmHg 74%
    04:00 +6°C° 0.1 mm 10 mps 738 mmHg 74%
    05:00 +6°C° 0.1 mm 10 mps 739 mmHg 74%
    06:00 +6°C° 0.1 mm 10 mps 739 mmHg 75%
    07:00 +6°C° 0.1 mm 10 mps 740 mmHg 75%
    08:00 +6°C° 0.1 mm 10 mps 740 mmHg 74%
    09:00 +6°C° 0.1 mm 9 mps 741 mmHg 72%
    10:00 +6°C° 0.1 mm 9 mps 741 mmHg 71%
    11:00 +7°C° 0 mm 9 mps 741 mmHg 70%
    12:00 +7°C° 0 mm 8 mps 741 mmHg 69%
    13:00 +9°C° 0 mm 8 mps 742 mmHg 68%
    14:00 +9°C° 0 mm 7 mps 742 mmHg 68%
    15:00 +9°C° 0 mm 7 mps 742 mmHg 68%
    16:00 +9°C° 0 mm 7 mps 742 mmHg 68%
    17:00 +8°C° 0 mm 6 mps 743 mmHg 68%
    18:00 +8°C° 0 mm 6 mps 743 mmHg 69%
    19:00 +8°C° 0 mm 5 mps 744 mmHg 69%
    20:00 +8°C° 0 mm 5 mps 744 mmHg 70%
    21:00 +8°C° 0 mm 4 mps 744 mmHg 70%
    22:00 +8°C° 0 mm 4 mps 745 mmHg 71%
    23:00 +8°C° 0 mm 4 mps 745 mmHg 70%

    18 October, Friday

    Time Temperature Precipitation Wind Pressure Humidity
    00:00 +8°C° 0 mm 4 mps 745 mmHg 69%
    01:00 +7°C° 0 mm 4 mps 745 mmHg 68%
    02:00 +7°C° 0 mm 4 mps 746 mmHg 71%
    03:00 +7°C° 0 mm 3 mps 746 mmHg 74%
    04:00 +7°C° 0 mm 3 mps 746 mmHg 77%
    05:00 +7°C° 0 mm 3 mps 747 mmHg 77%
    06:00 +6°C° 0 mm 4 mps 747 mmHg 78%
    07:00 +6°C° 0 mm 4 mps 747 mmHg 79%
    08:00 +7°C° 0 mm 4 mps 747 mmHg 73%
    09:00 +9°C° 0 mm 3 mps 747 mmHg 67%
    10:00 +11°C° 0 mm 3 mps 747 mmHg 60%
    11:00 +12°C° 0 mm 3 mps 747 mmHg 57%
    12:00 +12°C° 0 mm 3 mps 747 mmHg 54%
    13:00 +13°C° 0 mm 3 mps 746 mmHg 50%
    14:00 +14°C° 0 mm 3 mps 746 mmHg 51%
    15:00 +15°C° 0 mm 2 mps 746 mmHg 53%
    16:00 +15°C° 0 mm 2 mps 745 mmHg 54%
    17:00 +12°C° 0 mm 3 mps 745 mmHg 59%
    18:00 +11°C° 0 mm 3 mps 745 mmHg 64%
    19:00 +10°C° 0 mm 4 mps 745 mmHg 70%
    20:00 +8°C° 0 mm 4 mps 745 mmHg 70%
    21:00 +8°C° 0 mm 5 mps 745 mmHg 70%
    22:00 +8°C° 0 mm 5 mps 745 mmHg 70%
    23:00 +8°C° 0 mm 5 mps 745 mmHg 70%

    19 October, Saturday

    Time Temperature Precipitation Wind Pressure Humidity
    00:00 +7°C° 0 mm 5 mps 745 mmHg 70%
    01:00 +7°C° 0 mm 5 mps 745 mmHg 70%
    02:00 +7°C° 0 mm 5 mps 744 mmHg 70%
    03:00 +7°C° 0 mm 6 mps 744 mmHg 70%
    04:00 +7°C° 0 mm 6 mps 744 mmHg 70%
    05:00 +7°C° 0 mm 6 mps 744 mmHg 69%
    06:00 +7°C° 0 mm 6 mps 744 mmHg 68%
    07:00 +6°C° 0 mm 7 mps 744 mmHg 68%
    08:00 +9°C° 0 mm 7 mps 744 mmHg 64%
    09:00 +11°C° 0 mm 7 mps 744 mmHg 61%
    10:00 +12°C° 0 mm 7 mps 743 mmHg 57%
    11:00 +15°C° 0 mm 7 mps 743 mmHg 56%
    12:00 +17°C° 0 mm 7 mps 743 mmHg 55%
    13:00 +18°C° 0 mm 7 mps 743 mmHg 53%
    14:00 +19°C° 0 mm 6 mps 743 mmHg 57%
    15:00 +17°C° 0 mm 5 mps 742 mmHg 60%
    16:00 +17°C° 0 mm 5 mps 742 mmHg 64%
    17:00 +16°C° 0 mm 5 mps 743 mmHg 65%
    18:00 +16°C° 0 mm 5 mps 743 mmHg 66%
    19:00 +16°C° 0 mm 5 mps 744 mmHg 68%
    20:00 +17°C° 0 mm 4 mps 744 mmHg 69%
    21:00 +17°C° 0 mm 4 mps 744 mmHg 70%
    22:00 +17°C° 0 mm 4 mps 745 mmHg 72%
    23:00 +17°C° 0 mm 3 mps 745 mmHg 74%
    Show more